User: anonymous   Login
Location: Lalanga
(4.5882°N, 32.9072°E)
Time: 11:41:01
(UTC+00:00)
Language:

Cosmos 1892 - Orbit

View from above orbital plane
View from above orbital plane
View from above satellite
View from above satellite

Ground track
Ground track

The orbit data is extracted from the following two-line orbital elements,

1 18421U 87088A   20099.16154223  .00000648  00000-0  31012-4 0  9990
2 18421  82.5015 343.1171 0013992 314.9554  45.0544 15.17089124774114
Epoch (UTC): 08 April 2020 03:52:37
Eccentricity: 0.0013992
inclination: 82.5015°
perigee height: 505 km
apogee height: 524 km
right ascension of ascending node: 343.1171°
argument of perigee: 314.9554°
revolutions per day: 15.17089124
mean anomaly at epoch: 45.0544°
orbit number at epoch: 77411

The dashed part of the orbit path shows where the satellite is in the earth's shadow,  

DLR